Location: Rathdrum
(47.8130°N, 116.8960°W)
Time: 10:29:46
(UTC-07:00)

Amateur Radio Satellites - All Passes

Search period start: 05 July 2015 09:59
Search period end: 06 July 2015 09:59
Location: Rathdrum, 47.8130°N, 116.8960°W

Satellite Date Start Highest point End Downlink Frequencies (MHz)
Time Altitude Azimuth
UWE-3 05 Jul 10:11:22 10:15:18 37° 97° (E) 10:19:19 435.000/436.395/437.385
ISS 05 Jul 10:14:29 10:17:40 49° 347° (NNW) 10:20:50 145.825
CINEMA 3 05 Jul 10:16:56 10:21:07 76° 286° (WNW) 10:25:20 145.822/145.860
QB50P1 05 Jul 10:24:46 10:28:40 37° 69° (ENE) 10:32:36 145.935-145.965
SEEDS 05 Jul 10:30:07 10:34:03 36° 291° (WNW) 10:37:57 437.485
ANTELSAT 05 Jul 10:34:12 10:38:29 78° 257° (WSW) 10:42:46 437.575/2403.000
VERMONT LUNAR 05 Jul 10:36:03 10:38:21 19° 190° (S) 10:40:38 437.305
VELOX 1 05 Jul 10:37:24 10:38:58 12° 86° (E) 10:40:45 145.980
GOMX 1 05 Jul 10:37:55 10:40:39 17° 298° (WNW) 10:43:14 467.674
NANOSAT C BR1 05 Jul 10:38:21 10:42:27 50° 72° (ENE) 10:46:34 145.865
HO-68 05 Jul 10:38:32 10:45:27 52° 295° (WNW) 10:52:18 435.675
AAUSAT CUBESAT 2 05 Jul 10:38:41 10:42:40 41° 290° (WNW) 10:46:38 437.432
DX 1 05 Jul 10:41:40 10:45:05 22° 93° (E) 10:48:33 434.975-435.025
DUCHIFAT 1 05 Jul 10:44:53 10:49:02 57° 72° (ENE) 10:53:11 145.980
TIGRISAT 05 Jul 10:46:11 10:50:25 61° 259° (W) 10:54:39 435.000
DELFI C3 05 Jul 10:47:15 10:51:21 84° 100° (E) 10:55:26 145.870
50 SAT 05 Jul 10:47:34 10:49:59 16° 90° (E) 10:52:31 437.505
RS-15 05 Jul 10:50:59 11:02:41 83° 51° (NE) 11:14:52 29.354- 29.394
POLYITAN 1 05 Jul 10:51:12 10:55:25 70° 74° (ENE) 10:59:38 437.675
AIST 2 05 Jul 10:51:55 10:54:40 16° 331° (NNW) 10:57:21 435.215
ZACube-1 05 Jul 10:56:33 11:00:47 87° 103° (ESE) 11:05:05 437.345
BUGSAT 1 05 Jul 10:57:25 11:01:33 53° 71° (ENE) 11:05:38 437.445
CUBEBUG 2 05 Jul 10:58:46 11:02:54 57° 287° (WNW) 11:07:04 437.445
UKube-1 05 Jul 11:00:45 11:04:38 32° 96° (E) 11:08:31 .
Oscar 11 05 Jul 11:03:16 11:07:30 50° 289° (WNW) 11:11:43 145.826/435.025
COMPASS 1 05 Jul 11:06:18 11:09:30 21° 296° (WNW) 11:12:38 437.405
HUMSAT D 05 Jul 11:07:13 11:11:17 50° 99° (E) 11:15:23 437.325/437.525
PHONESAT 2.4 05 Jul 11:07:28 11:10:19 24° 179° (S) 11:13:10 2401.200-2431.200
Cosmos 2499 05 Jul 11:18:22 11:25:25 87° 279° (W) 11:32:42 435.465 / 435.565
DOVE 4 05 Jul 11:18:26 11:19:38 11° 302° (WNW) 11:20:39 437.250
QB50P2 05 Jul 11:20:49 11:25:01 57° 259° (W) 11:29:13 145.880/145.840
CUTE 1.7 + AOD 2 05 Jul 11:21:00 11:22:39 12° 301° (WNW) 11:24:05 437.475
POPSAT HIP 1 05 Jul 11:21:16 11:25:28 58° 259° (W) 11:29:40 437.405
AISAT 05 Jul 11:23:00 11:27:02 34° 96° (E) 11:31:05 437.250
UNISAT 6 05 Jul 11:27:24 11:30:54 23° 267° (W) 11:34:20 437.425
FUNcube-1 05 Jul 11:32:28 11:36:27 42° 290° (WNW) 11:40:29 145.935
CUBEBUG 1 05 Jul 11:37:47 11:41:31 27° 94° (E) 11:45:17 437.445
UWE-3 05 Jul 11:48:17 11:51:42 24° 294° (WNW) 11:55:06 435.000/436.395/437.385
ISS 05 Jul 11:51:17 11:54:25 42° 7° (N) 11:57:32 145.825
GONETS M04 05 Jul 11:53:40 11:59:42 19° 308° (NW) 12:05:22
Oscar 19 05 Jul 11:54:48 11:58:17 19° 59° (ENE) 12:01:54 437.125/150
ESTCUBE 1 05 Jul 11:58:34 12:03:02 52° 99° (E) 12:07:28 437.505/2401.250
QB50P1 05 Jul 12:01:11 12:04:40 24° 267° (W) 12:08:05 145.935-145.965
VELOX 1 05 Jul 12:11:45 12:16:12 81° 286° (WNW) 12:20:35 145.980
NANOSAT C BR1 05 Jul 12:15:40 12:18:36 18° 270° (W) 12:21:26 145.865
DX 1 05 Jul 12:17:24 12:21:31 41° 291° (WNW) 12:25:35 434.975-435.025
50 SAT 05 Jul 12:21:08 12:24:54 48° 288° (WNW) 12:28:40 437.505
DUCHIFAT 1 05 Jul 12:22:37 12:25:15 16° 271° (W) 12:27:45 145.980
DELFI C3 05 Jul 12:24:17 12:25:53 12° 300° (WNW) 12:27:18 145.870
HO-68 05 Jul 12:28:19 12:31:44 14° 316° (NW) 12:34:52 435.675
POLYITAN 1 05 Jul 12:29:51 12:31:53 13° 273° (W) 12:33:43 437.675
BUGSAT 1 05 Jul 12:34:31 12:37:21 17° 270° (W) 12:40:01 437.445
ZACube-1 05 Jul 12:34:51 12:36:35 12° 300° (WNW) 12:38:09 437.345
SPROUT 05 Jul 12:35:35 12:39:28 33° 96° (E) 12:43:21 437.525
UKube-1 05 Jul 12:36:56 12:40:43 29° 294° (WNW) 12:44:26 .
HUMSAT D 05 Jul 12:43:47 12:46:44 19° 296° (WNW) 12:49:34 437.325/437.525
PHONESAT 2.4 05 Jul 12:45:20 12:47:44 18° 195° (SSW) 12:50:07 2401.200-2431.200
AO-7 05 Jul 12:57:20 13:01:31 15° 37° (NE) 13:05:59 29.400- 29.500
AISAT 05 Jul 12:59:44 13:03:32 28° 294° (WNW) 13:07:15 437.250
RS-15 05 Jul 13:04:09 13:14:13 34° 253° (WSW) 13:24:14 29.354- 29.394
TISAT 1 05 Jul 13:12:45 13:16:52 53° 100° (E) 13:20:58 437.305
CUBEBUG 1 05 Jul 13:13:59 13:17:56 34° 293° (WNW) 13:21:50 437.445
Cosmos 2499 05 Jul 13:15:04 13:19:56 19° 304° (NW) 13:24:39 435.465 / 435.565
YUBILEINY 05 Jul 13:25:25 13:33:22 38° 66° (ENE) 13:41:28 435.215
ISS 05 Jul 13:27:44 13:30:58 73° 207° (SSW) 13:34:12 145.825
Oscar 19 05 Jul 13:32:02 13:37:09 72° 257° (WSW) 13:42:19 437.125/150
JAS-2 05 Jul 13:33:46 13:36:19 14° 52° (NE) 13:39:09 435.910
ESTCUBE 1 05 Jul 13:36:10 13:39:35 21° 298° (WNW) 13:42:54 437.505/2401.250
ITAMSAT 1 05 Jul 13:46:07 13:51:07 50° 69° (ENE) 13:56:12 435.822/435.867
Gurwin Techsat 1B 05 Jul 13:46:30 13:51:38 52° 70° (ENE) 13:56:49 435.225
VELOX 1 05 Jul 13:50:32 13:52:04 11° 303° (WNW) 13:53:25 145.980
Cosmos 2491 05 Jul 13:53:37 13:59:53 23° 79° (ENE) 14:06:28 435.465 / 435.565
BEESAT 05 Jul 14:09:09 14:13:35 36° 96° (E) 14:18:02 436.000
BEESAT 3 05 Jul 14:11:25 14:14:34 21° 35° (NE) 14:17:44 437.485
SPROUT 05 Jul 14:11:48 14:15:28 27° 294° (WNW) 14:19:03 437.525
AIST 2 05 Jul 14:14:19 14:15:33 11° 19° (NNE) 14:16:51 435.215
AIST 1 05 Jul 14:24:19 14:25:36 11° 83° (E) 14:27:06
SWISSCUBE 05 Jul 14:24:47 14:29:31 55° 100° (E) 14:34:14 437.505
BEESAT 2 05 Jul 14:25:13 14:28:29 22° 36° (NE) 14:31:46 435.950
Cosmos 2504 05 Jul 14:28:28 14:28:40 10° 47° (NE) 14:29:23 435.465 / 435.565
ITUPSAT 1 05 Jul 14:30:39 14:35:25 56° 101° (E) 14:40:09 437.325
PCSat 05 Jul 14:33:26 14:36:27 16° 106° (ESE) 14:39:42 145.827
AO-7 05 Jul 14:44:35 14:52:27 49° 60° (ENE) 15:00:25 29.400- 29.500
TISAT 1 05 Jul 14:49:23 14:52:18 18° 298° (WNW) 14:55:05 437.305
KKS-1 05 Jul 15:04:48 15:08:24 24° 93° (E) 15:12:01 437.445
ISS 05 Jul 15:05:10 15:06:55 14° 224° (SW) 15:08:36 145.825
HORYU 2 05 Jul 15:07:14 15:11:23 42° 69° (ENE) 15:15:35 437.375
JAS-2 05 Jul 15:15:21 15:20:32 80° 74° (ENE) 15:26:06 435.910
YUBILEINY 05 Jul 15:22:09 15:30:41 57° 269° (W) 15:39:09 435.215
ITAMSAT 1 05 Jul 15:26:35 15:30:56 25° 268° (W) 15:35:12 435.822/435.867
Gurwin Techsat 1B 05 Jul 15:27:34 15:31:57 25° 268° (W) 15:36:15 435.225
Cosmos 2491 05 Jul 15:46:55 15:55:47 86° 280° (W) 16:04:39 435.465 / 435.565
BEESAT 05 Jul 15:47:08 15:51:23 31° 294° (WNW) 15:55:32 436.000
BEESAT 3 05 Jul 15:48:52 15:52:56 68° 235° (SW) 15:56:55 437.485
AIST 2 05 Jul 15:51:28 15:55:22 35° 42° (NE) 15:59:14 435.215
STARS 05 Jul 15:53:26 15:57:38 45° 99° (E) 16:01:51 437.465
AIST 1 05 Jul 15:58:13 16:02:38 81° 278° (W) 16:07:05
BEESAT 2 05 Jul 16:02:51 16:06:55 62° 236° (WSW) 16:10:54 435.950
SWISSCUBE 05 Jul 16:03:20 16:07:03 22° 298° (WNW) 16:10:38 437.505
O/OREOS (USA 219) 05 Jul 16:03:25 16:07:24 30° 53° (NE) 16:11:26 437.305
SO-50 05 Jul 16:06:20 16:10:02 24° 114° (ESE) 16:13:57 436.795
ITUPSAT 1 05 Jul 16:09:17 16:12:58 22° 298° (WNW) 16:16:32 437.325
PCSat 05 Jul 16:13:46 16:19:12 89° 298° (WNW) 16:24:41 145.827
Cosmos 2504 05 Jul 16:16:05 16:23:11 47° 72° (ENE) 16:30:50 435.465 / 435.565
CUTE-I 05 Jul 16:32:34 16:35:47 17° 56° (ENE) 16:39:10 437.470
AO-7 05 Jul 16:37:21 16:45:21 47° 261° (W) 16:53:21 29.400- 29.500
KKS-1 05 Jul 16:41:01 16:45:11 40° 291° (WNW) 16:49:18 437.445
HORYU 2 05 Jul 16:44:42 16:48:14 23° 268° (W) 16:51:42 437.375
JAS-2 05 Jul 17:03:40 17:06:40 15° 276° (W) 17:09:29 435.910
Cubesat XI-IV 05 Jul 17:05:31 17:10:03 29° 63° (ENE) 17:14:40 437.490
MOZHAYETS 4 05 Jul 17:07:04 17:11:36 49° 98° (E) 17:16:08
YUBILEINY 05 Jul 17:22:43 17:25:42 12° 290° (WNW) 17:28:05 435.215
AIST 2 05 Jul 17:30:06 17:33:56 34° 242° (WSW) 17:37:41 435.215
STARS 05 Jul 17:30:26 17:33:51 22° 297° (WNW) 17:37:11 437.465
CUBESAT XI-V 05 Jul 17:40:06 17:40:53 10° 83° (E) 17:41:58 437.345
AIST 1 05 Jul 17:40:36 17:41:11 10° 301° (WNW) 17:41:32
HO-68 05 Jul 17:42:31 17:43:43 11° 39° (NE) 17:45:13 435.675
O/OREOS (USA 219) 05 Jul 17:42:44 17:46:54 36° 252° (WSW) 17:51:02 437.305
SO-50 05 Jul 17:45:31 17:50:15 59° 313° (NW) 17:55:09 436.795
Cosmos 2491 05 Jul 17:47:24 17:54:12 23° 304° (NW) 18:00:43 435.465 / 435.565
PCSat 05 Jul 17:59:09 18:03:25 22° 326° (NW) 18:07:37 145.827
GONETS M04 05 Jul 18:02:33 18:07:51 18° 50° (NE) 18:13:32
Cosmos 2504 05 Jul 18:08:29 18:15:21 41° 272° (W) 18:22:35 435.465 / 435.565
CUTE-I 05 Jul 18:09:49 18:15:11 90° 121° (ESE) 18:20:38 437.470
GOMX 1 05 Jul 18:34:29 18:36:57 14° 60° (ENE) 18:39:30 467.674
DANDE 05 Jul 18:39:34 18:42:13 30° 71° (ENE) 18:44:37 436.750
Cubesat XI-IV 05 Jul 18:44:47 18:49:58 47° 261° (W) 18:55:11 437.490
MOZHAYETS 4 05 Jul 18:44:54 18:48:33 23° 296° (WNW) 18:52:07
PRISM 05 Jul 18:53:44 18:56:20 16° 90° (E) 18:59:03 437.425
BRITE-PL 05 Jul 19:03:22 19:08:17 39° 69° (ENE) 19:12:57 437.365/2234.400
STRAND 1 05 Jul 19:05:01 19:09:15 26° 92° (E) 19:13:33 437.568
CUTE 1.7 + AOD 2 05 Jul 19:06:01 19:07:50 13° 60° (ENE) 19:09:49 437.475
CUSAT 1 05 Jul 19:08:25 19:11:01 45° 262° (W) 19:13:32 437.405
CANX-2 05 Jul 19:09:00 19:11:21 15° 61° (ENE) 19:13:50 2200.000
DOVE 4 05 Jul 19:11:03 19:14:10 18° 63° (ENE) 19:17:19 437.250
CUBESAT XI-V 05 Jul 19:14:28 19:19:12 84° 103° (ESE) 19:23:52 437.345
HO-68 05 Jul 19:23:11 19:29:40 40° 61° (ENE) 19:36:16 435.675
SO-50 05 Jul 19:28:28 19:31:49 18° 336° (NNW) 19:35:10 436.795
CINEMA 3 05 Jul 19:46:33 19:49:28 18° 64° (ENE) 19:52:26 145.822/145.860
PCSat 05 Jul 19:48:14 19:48:59 10° 351° (N) 19:49:40 145.827
SEEDS 05 Jul 19:50:04 19:53:35 27° 67° (ENE) 19:57:10 437.485
CUTE-I 05 Jul 19:53:14 19:56:09 14° 275° (W) 19:58:47 437.470
AAUSAT CUBESAT 2 05 Jul 19:57:51 20:01:05 23° 65° (ENE) 20:04:25 437.432
GONETS M04 05 Jul 19:58:06 20:06:48 69° 77° (ENE) 20:15:28
GOMX 1 05 Jul 20:09:28 20:14:34 90° 215° (SW) 20:19:20 467.674
ZACube-1 05 Jul 20:22:21 20:24:08 13° 60° (ENE) 20:26:05 437.345
COMPASS 1 05 Jul 20:24:21 20:28:21 47° 71° (ENE) 20:32:24 437.405
CUBEBUG 2 05 Jul 20:24:58 20:28:05 21° 65° (ENE) 20:31:15 437.445
Oscar 11 05 Jul 20:26:08 20:29:28 23° 65° (ENE) 20:32:53 145.826/435.025
PRISM 05 Jul 20:28:02 20:32:10 54° 289° (WNW) 20:36:14 437.425
CUTE 1.7 + AOD 2 05 Jul 20:38:58 20:43:11 81° 258° (WSW) 20:47:27 437.475
BRITE-PL 05 Jul 20:42:00 20:46:51 33° 265° (W) 20:51:23 437.365/2234.400
CANX-2 05 Jul 20:42:37 20:46:48 67° 259° (WSW) 20:51:02 2200.000
STRAND 1 05 Jul 20:43:45 20:48:43 48° 291° (WNW) 20:53:37 437.568
DOVE 4 05 Jul 20:46:51 20:51:37 62° 259° (W) 20:56:07 437.250
CUBESAT XI-V 05 Jul 20:53:25 20:56:02 15° 301° (WNW) 20:58:30 437.345
AUBIESAT-1 05 Jul 20:54:03 20:57:01 18° 97° (E) 21:00:12 437.475
FUNcube-1 05 Jul 20:55:58 20:59:23 25° 66° (ENE) 21:02:50 145.935
Cosmos 2499 05 Jul 21:03:58 21:11:17 43° 70° (ENE) 21:19:12 435.465 / 435.565
HO-68 05 Jul 21:10:27 21:17:21 49° 261° (W) 21:24:14 435.675
UWE-3 05 Jul 21:11:51 21:15:53 46° 71° (ENE) 21:19:54 435.000/436.395/437.385
SO-50 05 Jul 21:12:50 21:14:20 11° 360° (N) 21:15:51 436.795
CINEMA 3 05 Jul 21:21:59 21:26:22 55° 260° (W) 21:30:36 145.822/145.860
SEEDS 05 Jul 21:25:30 21:29:17 32° 265° (W) 21:33:05 437.485
ESTCUBE 1 05 Jul 21:28:39 21:29:41 11° 56° (NE) 21:30:55 437.505/2401.250
M-CUBED/EXP-1 PRIME 05 Jul 21:28:59 21:33:03 45° 105° (ESE) 21:37:24 437.505
AAUSAT CUBESAT 2 05 Jul 21:32:37 21:36:31 38° 263° (W) 21:40:26 437.432
PCSat 05 Jul 21:32:52 21:34:58 12° 17° (NNE) 21:37:10 145.827
50 SAT 05 Jul 21:35:29 21:37:44 16° 63° (ENE) 21:40:07 437.505
DELFI C3 05 Jul 21:37:28 21:41:29 81° 73° (ENE) 21:45:32 145.870
VELOX 1 05 Jul 21:37:44 21:40:43 18° 62° (ENE) 21:43:50 145.980
DX 1 05 Jul 21:40:21 21:44:12 31° 67° (ENE) 21:48:06 434.975-435.025
GOMX 1 05 Jul 21:51:13 21:53:22 12° 274° (W) 21:55:14 467.674
GONETS M04 05 Jul 21:55:47 22:03:03 30° 278° (W) 22:10:05
ZACube-1 05 Jul 21:55:47 21:59:59 78° 257° (WSW) 22:04:10 437.345
UKube-1 05 Jul 21:58:37 22:02:43 42° 69° (ENE) 22:06:51 .
CUBEBUG 2 05 Jul 22:00:29 22:04:34 44° 262° (W) 22:08:35 437.445
Oscar 11 05 Jul 22:01:20 22:05:26 42° 262° (W) 22:09:33 145.826/435.025
COMPASS 1 05 Jul 22:01:21 22:04:19 18° 270° (W) 22:07:11 437.405
HUMSAT D 05 Jul 22:02:09 22:06:09 55° 73° (ENE) 22:10:11 437.325/437.525
ANTELSAT 05 Jul 22:23:24 22:26:13 17° 90° (E) 22:29:12 437.575/2403.000
AISAT 05 Jul 22:23:48 22:28:06 48° 70° (ENE) 22:32:25 437.250
AUBIESAT-1 05 Jul 22:27:53 22:31:59 55° 293° (WNW) 22:36:22 437.475
FUNcube-1 05 Jul 22:31:47 22:35:37 34° 264° (W) 22:39:24 145.935
TIGRISAT 05 Jul 22:34:42 22:37:59 21° 92° (E) 22:41:24 435.000
CUBEBUG 1 05 Jul 22:36:58 22:41:01 36° 68° (ENE) 22:45:06 437.445
UWE-3 05 Jul 22:49:41 22:52:42 18° 269° (W) 22:55:35 435.000/436.395/437.385
SO-50 05 Jul 22:53:31 22:56:51 18° 24° (NNE) 23:00:14 436.795
Cosmos 2499 05 Jul 22:57:10 23:04:35 47° 270° (W) 23:12:26 435.465 / 435.565
ESTCUBE 1 05 Jul 23:01:17 23:05:48 73° 74° (ENE) 23:10:22 437.505/2401.250
QB50P2 05 Jul 23:03:29 23:06:21 18° 90° (E) 23:09:20 145.880/145.840
POPSAT HIP 1 05 Jul 23:03:51 23:06:38 18° 90° (E) 23:09:33 437.405
M-CUBED/EXP-1 PRIME 05 Jul 23:04:18 23:07:40 24° 300° (WNW) 23:11:10 437.505
50 SAT 05 Jul 23:08:15 23:12:00 52° 260° (W) 23:15:46 437.505
VELOX 1 05 Jul 23:12:28 23:16:53 59° 259° (W) 23:21:20 145.980
UNISAT 6 05 Jul 23:14:27 23:18:45 52° 100° (E) 23:23:08 437.425
PCSat 05 Jul 23:15:19 23:20:10 32° 42° (NE) 23:25:04 145.827
DX 1 05 Jul 23:16:31 23:20:26 30° 264° (W) 23:24:19 434.975-435.025
DELFI C3 05 Jul 23:16:38 23:17:13 10° 275° (W) 23:17:33 145.870
SPROUT 05 Jul 23:32:51 23:36:53 40° 70° (ENE) 23:40:56 437.525
UKube-1 05 Jul 23:35:37 23:39:03 22° 268° (W) 23:42:25 .
HUMSAT D 05 Jul 23:39:47 23:42:18 15° 271° (W) 23:44:40 437.325/437.525
QB50P1 05 Jul 23:41:52 23:45:53 42° 98° (E) 23:49:54 145.935-145.965
NANOSAT C BR1 05 Jul 23:55:21 23:59:31 58° 101° (E) 00:03:39 145.865
Cosmos 2491 05 Jul 23:58:04 00:02:24 15° 47° (NE) 00:07:10 435.465 / 435.565
ANTELSAT 05 Jul 23:59:05 00:03:24 57° 288° (WNW) 00:07:46 437.575/2403.000
SWISSCUBE 05 Jul 23:59:40 00:02:08 14° 57° (ENE) 00:04:46 437.505
AISAT 06 Jul 00:01:34 00:04:57 20° 269° (W) 00:08:14 437.250
DUCHIFAT 1 06 Jul 00:01:42 00:05:54 66° 102° (ESE) 00:10:03 145.980
ITUPSAT 1 06 Jul 00:05:39 00:08:13 15° 58° (ENE) 00:10:58 437.325
TISAT 1 06 Jul 00:07:51 00:12:02 62° 73° (ENE) 00:16:14 437.305
POLYITAN 1 06 Jul 00:08:53 00:13:07 83° 104° (ESE) 00:17:20 437.675
TIGRISAT 06 Jul 00:10:48 00:14:59 45° 289° (WNW) 00:19:13 435.000
BUGSAT 1 06 Jul 00:11:33 00:15:34 56° 100° (E) 00:19:32 437.445
CUBEBUG 1 06 Jul 00:13:40 00:17:28 27° 266° (W) 00:21:13 437.445
SO-50 06 Jul 00:33:31 00:38:27 57° 47° (NE) 00:43:18 436.795
QB50P2 06 Jul 00:38:28 00:42:33 48° 289° (WNW) 00:46:37 145.880/145.840
POPSAT HIP 1 06 Jul 00:38:45 00:42:51 50° 288° (WNW) 00:46:54 437.405
ESTCUBE 1 06 Jul 00:40:46 00:43:16 14° 273° (W) 00:45:35 437.505/2401.250
UNISAT 6 06 Jul 00:52:02 00:55:15 20° 297° (WNW) 00:58:23 437.425
PCSat 06 Jul 00:58:35 01:03:53 54° 243° (WSW) 01:09:08 145.827
SPROUT 06 Jul 01:09:41 01:13:09 23° 268° (W) 01:16:31 437.525
QB50P1 06 Jul 01:18:15 01:21:31 22° 296° (WNW) 01:24:42 145.935-145.965
BEESAT 06 Jul 01:18:46 01:23:29 61° 71° (ENE) 01:28:14 436.000
RS-15 06 Jul 01:20:09 01:29:25 35° 108° (ESE) 01:39:12 29.354- 29.394
NANOSAT C BR1 06 Jul 01:32:12 01:34:58 17° 298° (WNW) 01:37:36 145.865
SWISSCUBE 06 Jul 01:34:33 01:39:20 89° 233° (SW) 01:44:12 437.505
DUCHIFAT 1 06 Jul 01:38:46 01:41:15 15° 299° (WNW) 01:43:35 145.980
Oscar 19 06 Jul 01:40:20 01:44:51 31° 94° (E) 01:49:24 437.125/150
ITUPSAT 1 06 Jul 01:40:42 01:45:30 87° 258° (WSW) 01:50:22 437.325
TISAT 1 06 Jul 01:45:51 01:48:17 14° 272° (W) 01:50:33 437.305
POLYITAN 1 06 Jul 01:46:33 01:48:28 13° 301° (WNW) 01:50:13 437.675
BUGSAT 1 06 Jul 01:48:03 01:50:40 16° 298° (WNW) 01:53:08 437.445
Cosmos 2491 06 Jul 01:53:11 02:01:48 58° 73° (ENE) 02:10:22 435.465 / 435.565
ITAMSAT 1 06 Jul 01:57:11 01:59:30 13° 85° (E) 02:02:04 435.822/435.867
Gurwin Techsat 1B 06 Jul 02:00:26 02:03:27 16° 86° (E) 02:06:42 435.225
AIST 1 06 Jul 02:02:04 02:06:05 35° 73° (ENE) 02:10:05
KKS-1 06 Jul 02:06:05 02:10:05 34° 67° (ENE) 02:14:07 437.445
SO-50 06 Jul 02:14:38 02:18:42 25° 245° (WSW) 02:22:39 436.795
JAS-2 06 Jul 02:23:06 02:23:43 10° 80° (E) 02:24:55 435.910
YUBILEINY 06 Jul 02:31:18 02:38:55 37° 85° (E) 02:46:43 435.215
MOZHAYETS 4 06 Jul 02:39:48 02:40:16 10° 56° (NE) 02:40:59
STARS 06 Jul 02:53:23 02:57:42 62° 73° (ENE) 03:02:04 437.465
BEESAT 06 Jul 02:58:28 03:01:47 18° 271° (W) 03:05:00 436.000
SWISSCUBE 06 Jul 03:16:06 03:18:01 12° 275° (W) 03:19:40 437.505
Oscar 19 06 Jul 03:19:32 03:24:19 40° 293° (WNW) 03:29:03 437.125/150
ITUPSAT 1 06 Jul 03:22:30 03:24:14 11° 275° (W) 03:25:42 437.325
RS-15 06 Jul 03:29:58 03:40:56 77° 312° (NW) 03:52:23 29.354- 29.394
ITAMSAT 1 06 Jul 03:34:36 03:39:53 89° 97° (E) 03:45:06 435.822/435.867
Gurwin Techsat 1B 06 Jul 03:38:50 03:44:12 81° 287° (WNW) 03:49:31 435.225
AIST 1 06 Jul 03:40:02 03:43:36 24° 271° (W) 03:47:03
KKS-1 06 Jul 03:42:52 03:46:46 28° 266° (W) 03:50:37 437.445
Cosmos 2491 06 Jul 03:50:34 03:58:22 37° 275° (W) 04:05:57 435.465 / 435.565
JAS-2 06 Jul 04:03:42 04:10:11 57° 100° (E) 04:17:27 435.910
MOZHAYETS 4 06 Jul 04:12:09 04:16:42 68° 73° (ENE) 04:21:18
YUBILEINY 06 Jul 04:26:57 04:35:29 57° 287° (WNW) 04:44:02 435.215
HORYU 2 06 Jul 04:31:09 04:35:32 53° 100° (E) 04:39:55 437.375
STARS 06 Jul 04:31:53 04:34:37 16° 271° (W) 04:37:12 437.465
AO-7 06 Jul 04:34:23 04:42:30 51° 100° (E) 04:50:35 29.400- 29.500
CUBESAT XI-V 06 Jul 04:45:43 04:48:42 17° 61° (ENE) 04:51:50 437.345
Cosmos 2504 06 Jul 04:52:19 04:57:56 29° 84° (E) 05:03:46 435.465 / 435.565
ITAMSAT 1 06 Jul 05:15:30 05:18:45 16° 303° (WNW) 05:21:49 435.822/435.867
Gurwin Techsat 1B 06 Jul 05:20:28 05:23:27 15° 305° (NW) 05:26:14 435.225
RS-15 06 Jul 05:45:17 05:55:27 38° 342° (NNW) 06:05:59 29.354- 29.394
PRISM 06 Jul 05:46:59 05:50:03 20° 63° (ENE) 05:53:11 437.425
JAS-2 06 Jul 05:49:17 05:55:04 34° 296° (WNW) 06:01:20 435.910
MOZHAYETS 4 06 Jul 05:51:43 05:54:28 15° 273° (W) 05:57:05
BEESAT 2 06 Jul 06:03:13 06:03:23 10° 110° (ESE) 06:03:47 435.950
HORYU 2 06 Jul 06:08:32 06:11:51 20° 298° (WNW) 06:15:04 437.375
O/OREOS (USA 219) 06 Jul 06:20:42 06:23:23 16° 101° (E) 06:26:14 437.305
CUBESAT XI-V 06 Jul 06:20:58 06:25:40 70° 258° (WSW) 06:30:25 437.345
CUTE-I 06 Jul 06:23:53 06:28:26 28° 93° (E) 06:33:01 437.470
STRAND 1 06 Jul 06:23:58 06:28:56 52° 70° (ENE) 06:33:59 437.568
AO-7 06 Jul 06:27:25 06:35:17 46° 301° (WNW) 06:43:02 29.400- 29.500
YUBILEINY 06 Jul 06:30:20 06:34:53 14° 314° (NW) 06:39:00 435.215
CUSAT 1 06 Jul 06:36:53 06:40:09 16° 92° (E) 06:43:11 437.405
Cosmos 2504 06 Jul 06:42:58 06:49:45 56° 285° (WNW) 06:56:37 435.465 / 435.565
M-CUBED/EXP-1 PRIME 06 Jul 06:49:38 06:50:11 10° 52° (NE) 06:50:54 437.505
Cubesat XI-IV 06 Jul 06:58:17 07:03:34 53° 100° (E) 07:08:48 437.490
GONETS M04 06 Jul 07:11:49 07:16:10 16° 74° (ENE) 07:21:00
PRISM 06 Jul 07:21:09 07:25:12 46° 261° (W) 07:29:17 437.425
BEESAT 3 06 Jul 07:21:41 07:25:46 73° 125° (SE) 07:29:52 437.485
AIST 2 06 Jul 07:31:22 07:34:36 22° 115° (ESE) 07:37:56 435.215
BEESAT 2 06 Jul 07:36:41 07:40:48 81° 126° (SE) 07:44:58 435.950
ISS 06 Jul 07:45:01 07:47:50 28° 143° (SE) 07:50:41 145.825
AUBIESAT-1 06 Jul 07:45:10 07:48:13 32° 63° (ENE) 07:51:28 437.475
DANDE 06 Jul 07:51:19 07:57:55 55° 98° (E) 08:02:56 436.750
O/OREOS (USA 219) 06 Jul 07:57:56 08:02:22 62° 299° (WNW) 08:06:49 437.305
VERMONT LUNAR 06 Jul 08:00:22 08:02:33 18° 168° (SSE) 08:04:45 437.305
RS-15 06 Jul 08:01:22 08:11:39 37° 16° (NNE) 08:22:26 29.354- 29.394
CUTE-I 06 Jul 08:03:36 08:08:46 47° 292° (WNW) 08:13:51 437.470
STRAND 1 06 Jul 08:04:20 08:08:29 24° 269° (W) 08:12:34 437.568
GOMX 1 06 Jul 08:09:03 08:11:51 18° 90° (E) 08:14:44 467.674
CUSAT 1 06 Jul 08:16:39 08:22:40 72° 283° (WNW) 08:27:07 437.405
M-CUBED/EXP-1 PRIME 06 Jul 08:21:08 08:24:27 78° 250° (WSW) 08:28:00 437.505
AO-7 06 Jul 08:21:59 08:26:07 14° 324° (NW) 08:29:58 29.400- 29.500
CUTE 1.7 + AOD 2 06 Jul 08:22:05 08:24:20 14° 87° (E) 08:26:45 437.475
CANX-2 06 Jul 08:25:22 08:28:08 17° 89° (E) 08:31:02 2200.000
HO-68 06 Jul 08:34:20 08:40:18 29° 92° (E) 08:46:25 435.675
Cubesat XI-IV 06 Jul 08:38:56 08:43:23 26° 298° (WNW) 08:47:43 437.490
Cosmos 2504 06 Jul 08:41:41 08:44:00 11° 311° (NW) 08:45:55 435.465 / 435.565
DOVE 4 06 Jul 08:42:52 08:46:15 24° 93° (E) 08:49:43 437.250
BRITE-PL 06 Jul 08:43:07 08:47:27 65° 100° (E) 08:51:34 437.365/2234.400
PHONESAT 2.4 06 Jul 08:47:22 08:49:12 14° 160° (SSE) 08:51:06 2401.200-2431.200
BEESAT 3 06 Jul 09:01:02 09:04:10 20° 326° (NW) 09:07:17 437.485
GONETS M04 06 Jul 09:02:51 09:11:32 70° 94° (E) 09:20:14
SEEDS 06 Jul 09:05:58 09:09:48 32° 95° (E) 09:13:39 437.485
AIST 2 06 Jul 09:08:43 09:12:54 52° 313° (NW) 09:17:06 435.215
AAUSAT CUBESAT 2 06 Jul 09:12:05 09:15:36 26° 93° (E) 09:19:10 437.432
CINEMA 3 06 Jul 09:13:32 09:16:55 24° 93° (E) 09:20:25 145.822/145.860
BEESAT 2 06 Jul 09:16:20 09:19:24 19° 327° (NNW) 09:22:25 435.950
AUBIESAT-1 06 Jul 09:20:42 09:23:10 18° 263° (W) 09:25:39 437.475
ISS 06 Jul 09:20:50 09:24:03 66° 340° (NNW) 09:27:18 145.825
DUCHIFAT 1 06 Jul 09:25:50 09:26:08 10° 57° (ENE) 09:26:38 145.980
ANTELSAT 06 Jul 09:25:52 09:29:10 23° 65° (ENE) 09:32:33 437.575/2403.000
POLYITAN 1 06 Jul 09:32:06 09:33:49 13° 59° (ENE) 09:35:43 437.675
DANDE 06 Jul 09:35:53 09:41:12 26° 290° (WNW) 09:45:24 436.750
VERMONT LUNAR 06 Jul 09:36:28 09:38:53 21° 185° (S) 09:41:19 437.305
TIGRISAT 06 Jul 09:36:56 09:40:31 27° 66° (ENE) 09:44:10 435.000
COMPASS 1 06 Jul 09:39:36 09:43:48 57° 100° (E) 09:47:58 437.405
O/OREOS (USA 219) 06 Jul 09:41:18 09:42:50 11° 321° (NW) 09:44:12 437.305
ZACube-1 06 Jul 09:41:52 09:44:20 15° 89° (E) 09:46:59 437.345
Oscar 11 06 Jul 09:45:15 09:48:57 27° 94° (E) 09:52:42 145.826/435.025
GOMX 1 06 Jul 09:46:18 09:50:22 46° 289° (WNW) 09:54:20 467.674
Cosmos 2499 06 Jul 09:46:42 09:52:18 27° 83° (E) 09:58:11 435.465 / 435.565
CUBEBUG 2 06 Jul 09:47:53 09:51:29 27° 94° (E) 09:55:11 437.445
